STARLINK-33682, 63433

Orbit data source: Space-Track

STARLINK-33682, 63433 is a payload satellite owned by SpaceX/Seattle (US) in LEO that was launched on Fri, 04 Apr 2025 UTC via an FALCON 9 launch vehicle from the Air Force Western Test Range (AFWTR). Payload-class satellites include a variety of spacecraft equipped with specific instruments for various scientific and technological missions. These include communications satellites like Starlink; space stations such as the ISS; scientific satellites like the Hubble; Earth observation satellites from companies like Planet Labs, Umbra, and HawkEye 360; GPS; miniature CubeSats for education and research; and military/defense satellites.

Loading next visibility...
Identifier
63433, 2025-069A
Orbit
LEO
Country
Flag of USUS
Related business
Manufacturer
SpaceX/Seattle
Mission
Operational Commercial Communications
Bus & Motor
STARLINK V2MO, Unknown motor
Mass
575 kg wet, ~530 kg dry
Launch date (UTC)
2025-04-04 (8 months ago)
Launch vehicle
FALCON 9
Launch site
Air Force Western Test Range (AFWTR)
Object type
Payload
Rocket body
Debris
Shape & HBR
Box + 2 Pan, 17.7 m
Radar Cross Section
36.964 m², Large (>1 m²)

Expand to show TLE details & history
Last TLE update: 19 hours ago

TLE from 19 hours ago
0 STARLINK-33682
1 63433U 25069A   25348.90819544  .00007778  00000-0  27449-3 0  9991
2 63433  53.1582 176.3288 0001297  92.6663 267.4487 15.30193901 40421
Epoch: 2025-12-14T21:47Z
TLE epoch observation values (Epoch: 2025-12-14T21:47:48.086Z)
Latitude
0.00006°
Longitude
125.56412°
Altitude
476.172 km
Speed
7.629 km/s
True Right ascension
11h 45m 18s
True Declination
0° 00' 00"
Sunlit
Object was in daylight at epoch
Visualization orbit readout
Latitude
Unknown
Longitude
Unknown
Altitude
Unknown
Speed
Unknown
Apparent Right ascension
Unknown
Apparent Declination
Unknown
Sunlit
N/A
Visualization observer readout
Local Sidereal Time
15:11:06
Azimuth
Unknown
Elevation
Unknown
Doppler factor
Unknown
Orbital elements
Apogee altitude
476.379 km
Perigee altitude
474.601 km
Semi-major axis
6,853.627 km
Eccentricity
0.00013
Inclination
53.1582°
RAAN
176.3288°
Arg. of periapsis
92.6663°
True anomaly
267.43385°
Mean anomaly
267.4487°
Eccentric anomaly
267.44128°
Mean motion
3.82527 °/min
Orbital period
94.11 mins
BSTAR
0.00027449
Loading maneuver chart data...
Computing Atmospheric mass density...
Loading historical data...
Loading historical data...
Loading historical data...
Loading historical data...
Loading historical data...
Loading historical data...
Loading historical data...

Documentation

Showing up to 5 results
|